loading
|

SCOUT A DEB, 2140

Orbit data source: Space-Track

SCOUT A DEB, 2140 is space debris in LEO originally from a launch on Fri, 28 Jan 1966 UTC launched from the Air Force Western Test Range (AFWTR). Debris objects in space refer to the collection of defunct objects orbiting the Earth. Examples of debris include non-operational satellites, rocket bodies, and fragments generated from explosions, collisions, or faulty payload assembly.

Loading next visibility...
Loading greatness...
SCOUT A DEB details
Identifier
2140, 1966-005C
Orbit
LEO
Last TLE update2 days ago
Origin
Flag of USUSN BuWeps (US)
ManufacturerUnknown
MissionSpacecraft
Bus & MotorUnknown bus, Unknown motor
MassUnknown
Launch date (UTC)
1966-01-28 (59 years ago)
Launch vehicleUnknown
Launch site
Air Force Western Test Range (AFWTR)
Object type
Payload
Rocket body
Debris
Shape & HBRUnknown
Radar Cross SectionSmall (<0.1 m²)

Expand to show TLE details & history

TLE from 2 days ago
0 SCOUT A DEB
1 02140U 66005C   24278.37248964  .00002235  00000-0  26509-2 0  9996
2 02140  89.9395  53.7334 0317824 177.2808 183.0168 13.47971168874806
Epoch: 2024-10-04T08:56Z
Definitive object data (Epoch: 2024-10-04T08:56:23.104Z)
Latitude-0.00004°
Longitude-93.90696°
Altitude1,319.455 km
Speed7.082 km/s
True Right ascension03h 34m 56s
True Declination0° 00' 00"
Sunlit
Object was in full shadow at TLE epoch
Predictive object data (real-time)
Latitude-71.34454°
Longitude-94.09465°
Altitude1,203.902 km
Speed7.204 km/s
Apparent Right ascension03h 50m 32s
Apparent Declination-56° 54' 16"
Sunlit
Object is in daylight
Predictive observer data (real-time)
Local Sidereal Time15:58:39
Azimuth176.217° S
Elevation-72.96°
Doppler factor1
Orbital elements
Apogee1,313.716 km
Perigee839.845 km
Semi-major axis7,454.918 km
Eccentricity0.0317824
Inclination89.9395°
RAAN53.7334°
Arg. of periapsis177.2808°
True anomaly182.83245°
Mean anomaly183.0168°
Eccentric anomaly182.92391°
Mean motion3.37193 °/min
BSTAR0.0026509
Period106.76 mins
No data available

SCOUT A DEB Visibility forecast

Observer location: 39.9160978°, -105.1181434

SCOUT A DEB is not visible in the next 10 days
Span
Click to sort rows by Start time (UTC) header in descending order
Start Az.
Max El. time (UTC)
Max El. Az.
Max El.
End time (UTC)
End Az.